Weather History for Grand Canyon, AZ

Change the Weather History Date:

Wednesday, November 21, 2012

  Actual Average Record
Temperature  
Mean Temperature 38 °F -  
Max Temperature 61 °F 48 °F 66 °F (2002)
Min Temperature 14 °F 17 °F 4 °F (1985)
Degree Days  
Heating Degree Days 28    
Moisture  
Dew Point 11 °F    
Average Humidity 42    
Maximum Humidity 71    
Minimum Humidity 14    
Precipitation  
Precipitation 0.00 in - - ()
Sea Level Pressure  
Sea Level Pressure 30.19 in    
Wind  
Wind Speed 3 mph (SSW)    
Max Wind Speed 14 mph    
Max Gust Speed 22 mph    
Visibility 10 miles    
Events      
Averages and records for this station are not official NWS values.
T = Trace of Precipitation, MM = Missing Value Source: NWS Daily Summary

Daily Weather History Graph

Daily Weather History Graph

Search for Another Location

Airport:

Trip Planner

Search our weather history database for the weather conditions in past years. The results will help you decide how hot, cold, wet, or windy it might be!

Date:

Astronomy

Nov. 21, 2012 Rise Set
Actual Time 7:11 AM MST 5:17 PM MST
Civil Twilight 6:43 AM MST 5:45 PM MST
Nautical Twilight 6:12 AM MST 6:16 PM MST
Astronomical Twilight 5:42 AM MST 6:46 PM MST
Moon 1:25 PM MST (11/21) 12:46 AM MST (11/21)
Length of Visible Light 11h 01m
Length of Day
10h 05m
Waxing Gibbous, 62% of the Moon is Illuminated
Nov 21
Waxing Gibbous
Nov 28
Full
Dec 6
Last Quarter
Dec 13
New
Dec 19
First Quarter

Hourly Weather History & Observations

Time (MST) Temp. Windchill Dew Point Humidity Pressure Visibility Wind Dir Wind Speed Gust Speed Precip Events Conditions
12:54 AM 19.9 °F - 8.1 °F 60% 30.18 in 10.0 mi Calm Calm - N/A   Clear
1:54 AM 19.0 °F - 7.0 °F 59% 30.17 in 10.0 mi Calm Calm - N/A   Clear
2:54 AM 18.0 °F - 6.1 °F 60% 30.17 in 10.0 mi Calm Calm - N/A   Clear
3:54 AM 17.1 °F - 6.1 °F 62% 30.17 in 10.0 mi Calm Calm - N/A   Clear
4:54 AM 16.0 °F - 6.1 °F 65% 30.18 in 10.0 mi Calm Calm - N/A   Clear
5:54 AM 15.1 °F - 6.1 °F 68% 30.25 in 10.0 mi Calm Calm - N/A   Clear
6:54 AM 14.0 °F - 6.1 °F 71% 30.31 in 10.0 mi Calm Calm - N/A   Clear
7:54 AM 19.0 °F - 8.1 °F 62% 30.32 in 10.0 mi Calm Calm - N/A   Clear
8:54 AM 35.1 °F - 15.1 °F 44% 30.27 in 10.0 mi Calm Calm - N/A   Clear
9:54 AM 54.0 °F - 21.9 °F 29% 30.19 in 10.0 mi SSW 10.4 mph - N/A   Clear
10:54 AM 55.0 °F - 19.9 °F 25% 30.19 in 10.0 mi South 10.4 mph - N/A   Clear
11:54 AM 57.0 °F - 18.0 °F 22% 30.16 in 10.0 mi SSW 9.2 mph - N/A   Clear
12:54 PM 60.1 °F - 14.0 °F 16% 30.12 in 10.0 mi SW 8.1 mph 16.1 mph N/A   Clear
1:54 PM 61.0 °F - 12.9 °F 15% 30.10 in 10.0 mi SW 10.4 mph 19.6 mph N/A   Clear
2:54 PM 61.0 °F - 10.9 °F 14% 30.09 in 10.0 mi SW 13.8 mph 21.9 mph N/A   Clear
3:54 PM 60.1 °F - 12.0 °F 15% 30.10 in 10.0 mi WSW 12.7 mph - N/A   Clear
4:54 PM 55.9 °F - 14.0 °F 19% 30.12 in 10.0 mi SSW 9.2 mph - N/A   Clear
5:54 PM 39.0 °F - 9.0 °F 29% 30.22 in 10.0 mi Calm Calm - N/A   Clear
6:54 PM 33.1 °F 28.7 °F 9.0 °F 37% 30.25 in 10.0 mi NE 4.6 mph - N/A   Clear
7:54 PM 28.9 °F 25.2 °F 8.1 °F 41% 30.26 in 10.0 mi NE 3.5 mph - N/A   Clear
8:54 PM 27.0 °F - 8.1 °F 45% 30.21 in 10.0 mi Calm Calm - N/A   Clear
9:54 PM 25.0 °F - 9.0 °F 51% 30.13 in 10.0 mi Calm Calm - N/A   Clear
10:54 PM 25.0 °F 19.3 °F 9.0 °F 51% 30.14 in 10.0 mi NE 4.6 mph - N/A   Clear
11:54 PM 23.0 °F - 8.1 °F 53% 30.14 in 10.0 mi Calm Calm - N/A   Clear